Weather History for KGWO - December, 2012

Change the Weather History Date:

Monday, December 31, 2012

  Actual Average Record
Temperature  
Mean Temperature 43 °F 44 °F  
Max Temperature 57 °F 53 °F 81 °F (1951)
Min Temperature 29 °F 34 °F 12 °F (1976)
Degree Days  
Heating Degree Days 22 22  
Month to date heating degree days 436 598  
Since 1 July heating degree days 1033 1066  
Cooling Degree Days 0 0  
Month to date cooling degree days 11 5  
Year to date cooling degree days 2252 2164  
Moisture  
Dew Point 38 °F    
Average Humidity 73    
Maximum Humidity 85    
Minimum Humidity 60    
Precipitation  
Precipitation 0.16 in 0.15 in 2.11 in (2002)
Month to date precipitation 7.07 5.65  
Year to date precipitation 44.26 51.77  
Sea Level Pressure  
Sea Level Pressure 30.19 in    
Wind  
Wind Speed 6 mph (SSE)    
Max Wind Speed 23 mph    
Max Gust Speed 31 mph    
Visibility 9 miles    
Events Rain    
T = Trace of Precipitation, MM = Missing Value Source: NWS Daily Summary

Daily Weather History Graph

Daily Weather History Graph

Search for Another Location

Airport or City:

Trip Planner

Search our weather history database for the weather conditions in past years. The results will help you decide how hot, cold, wet, or windy it might be!

Date:

Astronomy

Dec. 31, 2012 Rise Set
Actual Time 7:04 AM CST 5:02 PM CST
Civil Twilight 6:36 AM CST 5:30 PM CST
Nautical Twilight 6:05 AM CST 6:01 PM CST
Astronomical Twilight 5:35 AM CST 6:31 PM CST
Moon 8:22 PM CST (12/31) 8:55 AM CST (12/31)
Length of Visible Light 10h 53m
Length of Day
9h 58m
Waning Gibbous, 90% of the Moon is Illuminated
Dec 31
Waning Gibbous
Jan 4
Last Quarter
Jan 11
New
Jan 18
First Quarter
Jan 26
Full

Hourly Weather History & Observations

Time (CST) Temp. Windchill Dew Point Humidity Pressure Visibility Wind Dir Wind Speed Gust Speed Precip Events Conditions
12:53 AM 39.0 °F 34.0 °F 28.0 °F 65% 30.35 in 10.0 mi SSE 6.9 mph - N/A   Clear
1:53 AM 37.9 °F 34.4 °F 28.0 °F 68% 30.33 in 10.0 mi SSE 4.6 mph - N/A   Clear
2:53 AM 34.0 °F - 28.0 °F 79% 30.35 in 10.0 mi Calm Calm - N/A   Clear
3:53 AM 32.0 °F 28.7 °F 28.9 °F 88% 30.33 in 10.0 mi NE 3.5 mph - N/A   Clear
4:53 AM 32.0 °F 27.5 °F 28.0 °F 85% 30.32 in 10.0 mi East 4.6 mph - N/A   Partly Cloudy
5:53 AM 30.0 °F - 27.0 °F 88% 30.33 in 10.0 mi Calm Calm - N/A   Clear
6:53 AM 32.0 °F - 28.0 °F 85% 30.34 in 10.0 mi Calm Calm - N/A   Mostly Cloudy
7:53 AM 37.0 °F 34.5 °F 30.0 °F 76% 30.32 in 10.0 mi East 3.5 mph - N/A   Overcast
8:53 AM 39.0 °F - 30.0 °F 70% 30.32 in 10.0 mi Calm Calm - N/A   Overcast
9:53 AM 43.0 °F 38.8 °F 30.0 °F 60% 30.30 in 10.0 mi SSE 6.9 mph - N/A   Overcast
10:53 AM 45.0 °F 41.8 °F 32.0 °F 60% 30.28 in 10.0 mi SSE 5.8 mph - N/A   Overcast
11:02 AM 44.6 °F 40.7 °F 32.0 °F 61% 30.26 in 10.0 mi SSE 6.9 mph - N/A   Overcast
11:53 AM 46.9 °F - 34.0 °F 61% 30.21 in 10.0 mi SSE 6.9 mph - N/A   Overcast
12:53 PM 48.9 °F - 37.0 °F 64% 30.16 in 10.0 mi SE 6.9 mph - N/A   Overcast
1:53 PM 50.0 °F - 39.0 °F 66% 30.14 in 10.0 mi SSE 8.1 mph - N/A   Overcast
2:53 PM 52.0 °F - 41.0 °F 66% 30.11 in 10.0 mi SE 10.4 mph 17.3 mph N/A   Overcast
3:53 PM 52.0 °F - 42.1 °F 69% 30.10 in 10.0 mi SE 5.8 mph - N/A   Overcast
4:53 PM 51.1 °F - 42.1 °F 71% 30.11 in 10.0 mi SSE 8.1 mph - N/A   Overcast
5:53 PM 52.0 °F - 44.1 °F 74% 30.09 in 10.0 mi South 8.1 mph - N/A   Overcast
6:53 PM 53.1 °F - 46.0 °F 77% 30.03 in 10.0 mi SSE 15.0 mph - 0.00 in   Mostly Cloudy
7:53 PM 54.0 °F - 46.9 °F 77% 30.03 in 10.0 mi South 12.7 mph - N/A   Mostly Cloudy
8:53 PM 55.9 °F - 48.9 °F 77% 30.01 in 10.0 mi South 12.7 mph - N/A   Mostly Cloudy
9:53 PM 57.2 °F - 50.0 °F 77% 29.99 in 10.0 mi South 16.1 mph - N/A   Overcast
10:53 PM 57.0 °F - 51.1 °F 81% 30.01 in 9.0 mi Calm Calm - 0.00 in Rain Light Rain
11:38 PM 53.6 °F - 51.8 °F 94% 30.03 in 2.0 mi NNW 6.9 mph - 0.12 in Rain Heavy Rain
11:53 PM 53.1 °F - 52.0 °F 96% 30.03 in 3.0 mi NNW 4.6 mph - 0.15 in Rain Light Rain